DELTA 1 DEB, 14470

Orbit data source: Space-Track

DELTA 1 DEB, 14470 is space debris in SSO originally from a launch on Tue, 06 Nov 1973 UTC launched from the Air Force Western Test Range (AFWTR). Debris objects in space refer to the collection of defunct objects orbiting the Earth. Examples of debris include non-operational satellites, rocket bodies, and fragments generated from explosions, collisions, or faulty payload assembly.

Loading next visibility...
Identifier
14470, 1973-086GP
Orbit
SSO
Country
Flag of USUS
Related business
Manufacturer
Unknown
Mission
Spacecraft
Bus & Motor
Unknown
Mass
Unknown
Launch date (UTC)
1973-11-06 (53 years ago)
Launch vehicle
Unknown
Launch site
Air Force Western Test Range (AFWTR)
Object type
Payload
Rocket body
Debris
Shape & HBR
Unknown shape, 0.1 m
Radar Cross Section
Medium (>0.1 m² and <1 m²)

Expand to show TLE details & history
Last TLE update: 13 hours ago

TLE from 13 hours ago
0 DELTA 1 DEB
1 14470U 73086GP  26263.26003591  .00000118  00000-0  67023-3 0  9996
2 14470 101.7565 170.0114 0122371   5.3242 116.1465 12.84140907 43668
Epoch: 2026-09-20T06:14Z
TLE epoch observation values (Epoch: 2026-09-20T06:14:27.102Z)
Latitude
55.54883°
Longitude
-85.18864°
Altitude
1,376.368 km
Speed
7.156 km/s
True Right ascension
00h 30m 19s
True Declination
55° 24' 04"
Sunlit
Object was in daylight at epoch
Visualization orbit readout
Latitude
Unknown
Longitude
Unknown
Altitude
Unknown
Speed
Unknown
Apparent Right ascension
Unknown
Apparent Declination
Unknown
Sunlit
N/A
Visualization observer readout
Local Sidereal Time
11:59:01
Azimuth
Unknown
Elevation
Unknown
Doppler factor
Unknown
Orbital elements
Apogee altitude
1,416.6 km
Perigee altitude
1,228.136 km
Semi-major axis
7,700.505 km
Eccentricity
0.01224
Inclination
101.7565°
RAAN
170.0114°
Arg. of periapsis
5.3242°
True anomaly
117.39675°
Mean anomaly
116.1465°
Eccentric anomaly
116.77247°
Mean motion
3.21192 °/min
Orbital period
112.08 mins
BSTAR
0.00067023
Loading maneuver chart data...
Computing Atmospheric mass density...
Loading historical data...
Loading historical data...
Loading historical data...
Loading historical data...
Loading historical data...
Loading historical data...
Loading historical data...

Documentation

Showing up to 5 results
|